Wind_Speed
22 24 26 25 29 31 28 25 26 28 29 32 35 33 32 32 30 28 27 26 27 27 28 29 29 28 28 29 28 26 24 21 18 17 19 20 20 21 21 21 22 21 21 20 21 21 21 22 22 21 21 20
23 25 26 25 28 29 28 26 26 29 32 34 36 35 34 33 30 29 28 26 26 28 29 29 30 29 29 30 30 28 26 24 21 20 21 21 20 20 20 20 20 21 21 20 21 21 21 22 22 22 21 20
24 26 26 26 26 26 26 26 25 26 29 32 34 34 33 31 29 29 28 26 26 27 29 30 31 30 29 30 30 28 27 27 24 23 23 22 20 19 18 18 19 20 20 21 21 21 20 21 22 22 21 20
26 26 25 26 26 26 27 26 25 25 27 28 30 32 31 28 26 25 25 23 23 25 27 30 32 32 30 30 29 27 26 26 24 24 23 21 19 17 16 16 16 17 18 19 19 19 19 20 22 22 21 19
25 25 25 26 27 28 29 27 25 26 27 25 23 25 26 25 23 22 21 19 19 21 23 27 31 33 32 31 29 28 26 23 21 22 22 20 18 16 15 13 14 14 15 16 16 16 17 18 20 21 20 19
24 26 26 27 28 30 30 29 27 28 28 23 21 22 24 23 22 21 19 17 17 18 20 23 26 31 34 33 31 29 26 23 20 20 21 19 17 16 14 13 12 13 12 12 13 14 15 17 19 20 20 19
23 25 27 28 28 30 34 33 30 31 29 25 24 24 23 22 21 20 18 16 15 16 19 21 24 27 32 34 34 33 31 28 23 20 19 19 18 16 15 14 12 12 11 9 9 11 13 15 18 19 19 18
23 23 26 30 31 32 36 36 33 33 32 27 26 24 23 22 20 19 17 15 14 15 16 18 21 24 27 31 32 34 34 33 29 24 21 21 21 20 19 18 15 14 13 11 10 11 12 13 16 17 17 17
23 23 24 31 35 35 38 40 37 36 33 29 26 26 25 22 20 18 17 15 14 13 13 13 14 17 21 25 28 31 33 34 34 33 28 26 25 24 24 24 22 19 17 16 15 15 16 16 16 17 16 16
22 24 26 29 31 35 42 44 39 35 32 30 28 26 25 23 21 19 17 17 17 15 13 12 12 12 14 17 21 24 26 29 33 35 35 33 31 31 30 29 28 26 24 21 20 20 21 20 19 19 19 18
22 24 27 27 27 32 38 41 39 36 37 36 31 27 24 22 21 21 19 18 19 19 16 14 12 12 12 13 14 15 16 19 22 26 29 31 33 34 35 33 32 31 29 27 26 26 27 25 23 22 23 21
22 22 26 28 29 31 33 36 37 38 41 37 31 27 23 21 23 23 21 21 20 20 19 16 14 13 14 15 15 14 12 13 13 14 16 19 22 25 28 30 30 29 29 28 28 29 30 29 27 25 25 24
22 21 25 28 30 32 33 35 37 39 40 34 28 26 22 22 25 24 21 21 20 19 20 18 16 16 16 17 17 15 14 14 13 13 13 13 15 17 18 21 22 23 23 22 22 23 24 25 23 23 24 24
24 23 24 26 29 32 32 33 36 38 36 30 25 25 24 24 26 28 25 21 20 20 20 19 18 18 18 19 17 15 15 16 16 16 16 16 16 16 17 18 19 19 19 18 19 19 19 20 21 22 24 26
26 25 25 25 30 34 33 33 35 35 35 30 23 22 24 24 24 27 27 22 20 20 20 19 18 18 19 19 18 17 17 18 18 17 18 19 19 19 19 19 20 21 21 22 22 22 22 23 25 27 28 29
27 28 27 27 29 32 34 35 34 35 39 35 24 22 24 23 23 24 25 25 23 21 20 19 19 19 19 19 19 18 18 19 19 19 20 21 21 22 21 21 22 23 24 26 27 26 26 26 28 30 30 30
27 29 29 29 29 30 33 36 37 37 42 41 31 26 26 25 26 25 25 27 27 24 23 21 20 20 21 20 19 19 20 20 20 21 22 22 23 23 23 24 24 24 25 27 29 29 28 28 28 29 30 29
27 29 30 31 31 31 33 36 38 38 40 42 36 30 28 28 28 27 26 28 29 28 26 25 23 22 23 22 22 22 23 24 23 24 24 24 25 25 25 25 25 25 26 27 29 29 29 29 29 29 29 29
25 27 29 31 32 33 34 35 35 36 38 39 37 36 32 29 30 30 29 28 29 29 28 28 27 26 26 26 27 27 27 28 28 28 27 26 26 25 25 26 26 26 27 28 29 30 29 30 30 30 31 30
25 26 28 30 32 34 35 36 36 36 37 38 39 41 37 33 33 33 32 31 30 30 30 30 30 30 30 30 30 30 31 30 29 28 27 27 26 26 26 27 27 27 27 28 30 31 31 31 31 31 32 32
27 25 25 27 30 34 35 36 37 38 38 37 38 41 40 37 37 37 36 35 33 33 34 34 32 33 33 32 32 31 30 29 28 28 28 28 29 29 29 30 30 30 29 30 31 32 32 32 32 32 32 33
31 27 24 23 26 30 33 35 35 35 35 35 37 43 44 42 42 42 40 38 38 38 38 38 36 35 34 33 32 31 30 29 28 28 27 28 29 30 30 31 31 31 31 32 32 32 33 33 33 33 33 34
34 32 29 24 22 24 27 31 33 33 33 34 37 40 41 41 43 44 44 42 43 43 41 41 40 37 36 34 32 32 31 31 30 28 27 26 27 28 29 29 30 31 31 32 33 34 34 33 34 34 34 35
36 35 33 28 25 25 25 27 30 31 33 36 39 39 37 37 40 42 44 44 47 47 43 42 42 38 37 35 33 33 34 33 32 30 28 27 27 28 29 29 30 31 31 32 33 35 35 35 35 36 36 36
36 36 35 32 30 30 30 29 29 28 31 36 40 43 42 41 40 40 41 41 44 49 48 44 43 42 39 36 33 35 36 35 35 33 31 31 31 31 31 29 29 30 30 31 32 33 34 35 36 38 38 38
35 37 37 36 35 33 32 31 30 29 30 32 36 40 43 45 44 41 42 41 40 46 49 45 43 44 42 39 38 38 36 35 36 36 35 34 32 31 32 31 31 31 30 29 30 31 33 36 38 38 38 39
30 35 38 38 38 36 35 34 34 35 35 33 32 34 38 41 43 42 42 41 38 42 45 44 44 45 44 44 44 42 38 36 38 39 39 37 35 34 33 33 33 32 29 28 28 31 34 36 37 39 40 40
18 25 31 36 39 40 39 38 38 39 41 42 41 40 39 40 39 39 40 38 38 40 41 41 42 42 42 42 43 44 42 40 40 41 41 39 37 37 36 35 34 32 30 30 30 32 34 35 37 40 40 38
9 12 16 22 29 35 40 42 42 41 42 44 47 47 46 43 40 39 40 39 39 38 38 39 39 39 40 39 40 42 44 45 44 43 41 39 38 37 37 36 35 34 34 32 32 33 34 35 37 38 36 35
12 12 12 13 16 20 26 33 39 42 43 43 46 48 48 46 44 42 42 41 39 36 36 38 39 41 43 43 41 39 40 43 46 46 44 42 39 39 39 39 39 39 36 33 33 34 34 35 36 36 34 36
17 17 17 17 17 16 17 20 25 31 37 42 45 47 47 44 43 44 45 45 44 40 37 35 36 40 43 44 44 43 41 41 43 46 46 45 43 42 43 42 42 41 37 36 35 35 34 35 37 37 36 37
Wind_Direction
229 233 239 244 241 238 241 236 231 240 244 237 235 244 256 266 272 275 277 275 272 269 266 264 260 252 241 233 222 213 216 219 218 218 219 217 217 219 221 222 222 223 224 226 228 229 232 234 236 236 236 237
235 238 240 242 242 243 249 250 250 255 255 249 243 248 258 265 270 274 276 275 272 267 262 258 252 246 238 232 225 213 209 211 210 211 215 214 214 218 219 221 221 221 222 224 227 229 231 233 236 236 235 236
242 244 241 241 244 247 256 259 258 260 261 257 251 255 261 264 269 273 274 273 271 265 258 250 244 240 233 227 223 214 209 209 208 207 210 211 212 216 217 219 220 220 221 221 224 227 230 234 236 237 236 235
249 252 250 248 253 258 263 262 259 261 262 260 256 256 260 263 268 271 273 274 269 263 255 245 240 237 230 223 216 210 206 206 206 205 205 204 205 210 213 217 221 221 222 223 224 226 228 233 236 237 236 235
255 256 256 255 258 262 263 260 259 260 258 256 254 255 257 261 266 268 273 277 273 265 256 248 243 239 233 223 215 209 205 202 205 208 205 201 200 204 207 212 218 221 224 226 228 231 232 235 239 240 239 237
257 258 261 260 259 262 261 257 258 259 254 251 254 260 260 261 263 266 272 278 276 268 259 253 248 243 238 231 222 214 209 205 207 213 210 206 207 207 209 214 220 224 226 229 234 236 238 240 243 244 244 242
258 260 264 262 258 261 262 256 256 259 256 253 260 263 260 260 259 260 267 271 271 266 264 260 256 249 242 239 234 226 219 213 212 221 222 219 220 217 217 219 223 229 229 236 248 249 249 250 251 251 250 248
260 260 261 262 260 259 260 254 252 258 257 256 261 261 256 258 258 260 265 266 267 269 274 273 266 257 246 243 242 237 231 224 221 227 232 233 234 230 227 226 225 226 227 238 253 258 263 265 265 265 263 262
265 261 258 261 261 261 260 255 253 255 253 254 259 257 254 256 256 260 266 268 269 270 277 282 275 265 252 244 243 242 239 235 231 231 233 238 243 242 238 235 233 229 228 237 249 257 263 267 271 273 272 273
267 262 259 259 261 264 258 251 249 249 251 258 258 253 252 254 254 257 263 268 271 271 272 275 274 270 260 248 243 241 240 238 237 236 236 238 243 247 246 243 239 236 233 235 242 250 256 260 265 269 271 272
271 266 263 261 264 264 257 253 254 257 263 265 255 248 250 252 252 253 255 261 268 271 270 267 263 262 261 258 254 249 241 236 236 238 239 240 241 244 246 245 242 240 238 238 239 241 244 249 254 259 264 267
269 269 264 262 265 265 262 264 266 269 268 259 248 248 252 251 249 247 251 256 261 265 265 264 259 255 257 264 270 269 259 248 243 241 241 242 241 241 241 242 240 238 237 238 239 239 240 242 245 249 253 257
261 265 263 261 264 267 267 269 273 272 260 247 247 255 255 253 249 246 253 258 254 254 258 260 260 260 263 270 273 272 269 263 260 256 252 249 248 247 245 243 241 237 234 234 236 237 238 240 242 245 249 254
256 257 259 261 262 266 268 270 275 267 252 250 261 264 260 262 262 257 257 259 251 248 252 254 258 261 265 272 272 270 270 268 267 267 264 261 258 256 255 254 252 249 246 245 245 245 247 250 251 253 254 255
254 253 254 257 258 263 266 268 269 260 251 258 271 274 269 271 275 266 258 259 251 245 247 249 251 256 260 264 266 266 267 267 268 268 267 265 263 260 257 255 255 256 257 257 256 255 255 256 255 254 253 251
254 253 251 250 252 257 262 264 263 259 257 260 267 275 272 270 275 269 262 261 254 244 244 244 245 248 251 251 251 253 257 260 262 264 264 264 263 262 259 255 253 252 253 254 255 254 252 252 251 250 248 246
253 253 252 251 250 252 257 261 261 260 259 256 257 266 267 265 267 268 266 262 257 250 243 241 242 244 247 247 246 247 250 254 256 257 258 258 258 259 259 257 254 250 249 249 250 250 249 248 247 247 245 242
254 253 252 251 250 249 251 256 261 263 260 254 252 258 261 262 264 266 267 261 257 253 246 242 241 242 247 250 252 253 255 256 256 255 254 253 254 255 256 255 253 251 250 249 250 249 248 247 246 245 243 240
260 257 254 252 250 249 249 250 257 263 263 259 254 253 253 256 261 265 266 262 256 254 251 246 243 243 247 251 255 257 259 261 261 259 255 253 253 254 255 255 253 251 250 250 251 251 249 248 245 243 241 238
261 262 259 255 251 250 251 249 251 255 260 264 261 255 252 253 257 259 261 262 259 258 256 253 249 248 249 252 255 257 259 260 261 260 257 254 254 255 255 255 254 252 251 250 250 250 249 248 246 243 240 237
251 258 264 263 256 252 252 252 251 251 256 262 265 263 258 258 260 258 258 260 260 261 261 259 255 250 251 253 255 258 258 258 259 260 261 260 259 258 257 256 256 254 253 252 250 249 248 247 246 244 241 239
248 250 257 263 263 260 258 257 254 253 254 258 266 267 263 265 267 264 263 261 259 259 257 258 257 253 254 255 257 260 261 260 260 261 263 263 262 262 261 259 258 256 255 254 253 250 248 246 246 244 242 240
249 248 248 249 256 262 263 264 260 254 251 253 259 262 261 265 267 267 269 266 263 260 256 259 261 258 256 255 257 259 260 261 261 261 262 262 261 261 261 261 260 258 255 254 254 252 249 247 246 245 243 242
248 248 249 247 247 249 252 258 261 257 255 252 252 253 254 257 259 262 266 268 268 263 258 262 264 260 255 251 253 255 257 260 262 262 259 258 259 259 259 258 257 258 258 256 255 254 252 249 248 247 245 244
248 247 248 247 246 247 245 247 252 257 261 259 256 253 251 250 251 255 258 262 268 265 260 262 264 263 257 251 255 257 256 258 259 258 258 256 257 259 260 259 259 260 260 259 257 257 257 255 251 249 247 245
252 249 248 247 247 248 247 245 244 246 252 259 261 259 257 254 251 252 254 255 263 267 263 264 265 266 262 258 259 255 250 254 256 258 260 260 260 261 261 260 261 261 261 262 261 259 258 256 254 252 251 249
255 253 251 250 249 249 247 245 243 242 244 249 256 259 260 259 255 253 252 252 260 266 265 266 267 267 266 265 263 256 248 248 255 261 262 261 262 261 259 258 259 259 261 262 261 257 254 254 255 254 252 250
258 256 255 254 252 251 250 248 248 247 246 247 250 254 256 258 256 249 246 250 258 261 261 263 266 267 268 268 268 266 258 250 250 255 258 258 258 256 256 259 259 258 259 259 257 256 255 254 254 254 253 254
264 262 261 260 257 255 253 253 253 253 253 253 254 255 256 257 255 246 242 247 254 258 258 257 259 261 262 263 265 267 266 261 254 249 249 251 251 252 256 259 258 255 256 255 253 254 255 255 254 255 257 258
276 273 271 271 269 264 260 258 257 256 256 257 257 258 259 258 256 248 242 245 249 254 258 256 257 258 257 256 258 261 263 264 259 252 247 246 247 251 255 256 255 253 253 252 250 250 252 257 257 257 257 256
289 288 286 284 282 280 276 270 266 262 258 257 258 260 262 261 259 252 244 243 245 247 250 254 256 259 259 258 258 258 259 259 259 258 253 248 247 249 250 249 250 252 252 250 250 250 252 257 259 258 259 259
Height
3109 3109 3109 3109 3109 3109 3110 3111 3113 3113 3113 3113 3113 3114 3114 3114 3115 3117 3118 3118 3119 3119 3120 3119 3119 3120 3122 3123 3125 3126 3126 3127 3129 3130 3131 3132 3133 3134 3135 3135 3136 3137 3138 3139 3140 3140 3141 3141 3142 3143 3145 3147
3107 3107 3107 3107 3107 3108 3108 3110 3111 3112 3112 3111 3112 3112 3113 3113 3114 3115 3115 3116 3117 3117 3118 3118 3118 3118 3119 3120 3121 3123 3124 3124 3126 3128 3128 3129 3131 3131 3133 3134 3134 3135 3136 3136 3137 3139 3139 3139 3140 3141 3143 3145
3106 3105 3105 3105 3105 3106 3107 3108 3109 3109 3109 3108 3109 3110 3111 3111 3112 3112 3113 3114 3114 3114 3115 3116 3116 3116 3117 3118 3119 3120 3122 3122 3123 3125 3125 3127 3128 3129 3131 3132 3132 3133 3134 3134 3135 3136 3137 3138 3138 3139 3141 3143
3105 3104 3104 3104 3104 3104 3105 3106 3106 3106 3107 3107 3107 3108 3108 3109 3110 3110 3110 3111 3112 3112 3113 3114 3114 3115 3116 3116 3117 3118 3120 3121 3121 3122 3122 3124 3125 3127 3128 3129 3131 3131 3132 3133 3134 3135 3136 3136 3136 3137 3139 3141
3103 3103 3103 3102 3103 3103 3103 3103 3103 3104 3105 3105 3105 3105 3107 3108 3109 3109 3109 3109 3109 3110 3110 3111 3112 3113 3114 3115 3115 3116 3118 3119 3120 3120 3121 3122 3123 3124 3125 3126 3128 3129 3130 3131 3133 3133 3134 3134 3134 3135 3136 3139
3101 3101 3101 3101 3101 3101 3100 3100 3101 3102 3102 3103 3104 3104 3106 3107 3107 3107 3107 3107 3107 3108 3108 3108 3109 3111 3112 3113 3114 3115 3116 3117 3118 3119 3120 3121 3121 3121 3123 3124 3125 3127 3128 3129 3131 3132 3132 3132 3132 3133 3135 3137
3099 3099 3099 3098 3098 3098 3098 3098 3099 3099 3100 3101 3102 3103 3104 3105 3105 3106 3106 3106 3106 3107 3106 3106 3106 3108 3109 3111 3112 3113 3113 3114 3115 3116 3119 3120 3120 3120 3121 3122 3123 3125 3126 3128 3129 3129 3130 3130 3130 3131 3133 3135
3096 3097 3097 3097 3096 3096 3095 3096 3097 3097 3097 3098 3099 3100 3101 3102 3103 3103 3104 3104 3105 3105 3105 3105 3105 3106 3107 3109 3110 3111 3111 3112 3113 3114 3116 3118 3119 3119 3120 3121 3122 3123 3124 3126 3127 3127 3127 3128 3128 3129 3131 3133
3094 3095 3096 3095 3094 3094 3093 3093 3094 3094 3095 3095 3096 3097 3098 3099 3099 3100 3101 3101 3102 3103 3104 3104 3104 3105 3106 3107 3108 3108 3109 3111 3112 3112 3114 3116 3117 3118 3119 3119 3120 3121 3122 3123 3124 3125 3125 3126 3126 3127 3129 3131
3093 3092 3093 3092 3091 3091 3090 3089 3091 3092 3092 3093 3093 3094 3095 3096 3096 3097 3098 3099 3100 3101 3102 3102 3103 3104 3105 3106 3106 3106 3107 3109 3110 3110 3112 3113 3114 3115 3116 3117 3118 3118 3120 3121 3122 3122 3122 3124 3125 3125 3127 3129
3091 3090 3089 3089 3089 3089 3088 3087 3088 3089 3089 3090 3090 3091 3092 3093 3094 3095 3096 3096 3097 3098 3099 3100 3101 3102 3103 3104 3105 3105 3106 3106 3107 3108 3109 3110 3111 3112 3113 3114 3115 3116 3118 3119 3120 3120 3120 3122 3123 3124 3125 3126
3088 3088 3087 3087 3087 3087 3087 3086 3086 3086 3086 3086 3087 3088 3090 3091 3092 3093 3094 3094 3095 3096 3097 3098 3099 3100 3101 3102 3103 3104 3104 3104 3105 3105 3106 3107 3108 3109 3110 3111 3113 3114 3115 3116 3117 3118 3119 3120 3121 3121 3122 3124
3084 3085 3084 3084 3084 3084 3084 3084 3083 3083 3083 3084 3085 3086 3088 3089 3090 3091 3091 3092 3093 3093 3094 3095 3096 3097 3098 3099 3100 3101 3102 3102 3103 3103 3104 3104 3105 3106 3107 3109 3110 3111 3112 3113 3114 3115 3116 3117 3118 3119 3119 3121
3082 3082 3082 3082 3082 3082 3081 3082 3081 3081 3081 3082 3083 3085 3086 3087 3088 3088 3089 3090 3090 3091 3092 3093 3094 3095 3096 3096 3097 3098 3099 3100 3100 3101 3102 3102 3103 3104 3105 3106 3107 3108 3109 3110 3110 3111 3112 3114 3115 3116 3117 3119
3079 3079 3079 3081 3080 3079 3079 3079 3079 3080 3080 3080 3081 3083 3084 3085 3086 3086 3086 3087 3088 3089 3090 3090 3091 3092 3093 3094 3095 3095 3096 3097 3098 3099 3099 3100 3101 3102 3103 3104 3105 3105 3107 3107 3107 3108 3110 3112 3113 3114 3116 3118
3076 3076 3076 3078 3078 3077 3077 3076 3077 3078 3077 3077 3079 3080 3081 3082 3083 3083 3084 3084 3085 3086 3087 3088 3088 3089 3090 3091 3092 3093 3093 3094 3095 3096 3097 3098 3099 3100 3101 3101 3102 3103 3104 3105 3106 3106 3108 3110 3111 3112 3113 3115
3073 3073 3073 3074 3075 3075 3075 3074 3074 3075 3075 3074 3075 3077 3078 3079 3080 3080 3081 3081 3082 3083 3084 3085 3086 3087 3088 3089 3090 3090 3091 3092 3093 3094 3094 3095 3096 3097 3098 3099 3100 3101 3102 3103 3104 3104 3106 3108 3109 3110 3111 3113
3070 3070 3070 3070 3071 3071 3071 3071 3071 3072 3073 3073 3073 3074 3075 3076 3076 3077 3077 3078 3079 3080 3080 3082 3083 3084 3085 3086 3087 3088 3089 3089 3091 3092 3092 3093 3094 3095 3096 3096 3097 3098 3099 3100 3101 3102 3104 3105 3106 3107 3108 3110
3067 3067 3067 3067 3068 3067 3067 3068 3069 3069 3070 3070 3070 3070 3071 3072 3073 3073 3074 3075 3076 3077 3077 3078 3079 3081 3082 3083 3084 3085 3086 3086 3087 3088 3089 3090 3091 3092 3093 3093 3094 3095 3096 3097 3097 3099 3101 3102 3103 3104 3105 3106
3063 3063 3064 3064 3065 3064 3064 3065 3066 3067 3067 3067 3066 3066 3067 3068 3069 3070 3071 3072 3073 3073 3074 3075 3076 3077 3078 3079 3080 3081 3082 3083 3084 3085 3086 3087 3087 3089 3089 3090 3090 3092 3092 3093 3094 3095 3096 3098 3099 3100 3101 3103
3058 3059 3060 3061 3061 3061 3061 3062 3062 3064 3064 3064 3063 3063 3063 3064 3065 3066 3067 3068 3069 3070 3070 3071 3072 3073 3074 3075 3076 3077 3078 3079 3080 3081 3082 3083 3083 3084 3085 3086 3086 3088 3089 3089 3090 3091 3092 3094 3095 3096 3098 3099
3055 3056 3056 3057 3057 3058 3058 3058 3058 3060 3061 3061 3061 3060 3061 3061 3062 3062 3063 3064 3065 3065 3066 3067 3068 3068 3069 3070 3071 3073 3074 3075 3076 3077 3078 3078 3079 3080 3081 3082 3082 3084 3085 3086 3086 3087 3088 3090 3091 3092 3094 3095
3051 3052 3052 3052 3053 3054 3055 3056 3055 3056 3057 3058 3058 3058 3058 3059 3059 3059 3059 3060 3060 3060 3061 3062 3063 3064 3064 3065 3067 3068 3070 3071 3072 3073 3074 3074 3074 3075 3076 3077 3078 3079 3081 3082 3082 3082 3084 3085 3086 3087 3089 3091
3048 3048 3048 3049 3049 3050 3051 3051 3052 3053 3054 3054 3054 3054 3054 3054 3055 3055 3056 3057 3057 3056 3057 3057 3058 3059 3060 3060 3061 3063 3065 3067 3068 3069 3069 3069 3069 3070 3071 3073 3074 3074 3076 3077 3078 3078 3079 3081 3082 3083 3084 3086
3044 3045 3045 3046 3046 3046 3046 3046 3047 3049 3050 3049 3049 3049 3049 3049 3050 3051 3051 3053 3053 3053 3053 3054 3054 3055 3056 3057 3058 3059 3060 3062 3063 3064 3064 3065 3065 3065 3066 3068 3069 3070 3071 3072 3074 3075 3076 3077 3078 3078 3080 3081
3040 3041 3041 3042 3043 3043 3042 3042 3043 3044 3044 3044 3043 3044 3044 3045 3045 3046 3047 3048 3049 3049 3050 3050 3050 3051 3052 3053 3054 3054 3055 3056 3057 3059 3060 3061 3061 3061 3063 3064 3065 3065 3067 3068 3070 3072 3072 3072 3072 3073 3075 3077
3036 3036 3037 3038 3038 3039 3039 3039 3039 3039 3039 3038 3038 3038 3039 3040 3041 3042 3043 3044 3045 3045 3045 3046 3047 3047 3048 3049 3049 3050 3051 3051 3051 3053 3055 3056 3057 3058 3058 3059 3060 3061 3063 3065 3066 3067 3066 3067 3068 3069 3070 3072
3032 3032 3033 3033 3033 3034 3034 3035 3035 3034 3034 3033 3033 3033 3033 3034 3035 3037 3038 3039 3039 3039 3040 3041 3042 3043 3043 3044 3044 3045 3046 3047 3047 3047 3048 3051 3052 3052 3053 3054 3056 3058 3059 3060 3061 3062 3062 3064 3064 3063 3065 3069
3029 3029 3029 3028 3028 3029 3029 3029 3029 3029 3029 3029 3028 3029 3029 3029 3030 3031 3033 3033 3033 3034 3034 3035 3036 3036 3037 3038 3039 3040 3041 3042 3043 3043 3043 3045 3045 3046 3048 3050 3052 3053 3054 3055 3056 3057 3058 3059 3059 3060 3064 3067
3026 3025 3025 3024 3024 3024 3024 3024 3024 3024 3024 3024 3023 3023 3024 3025 3026 3026 3027 3027 3028 3028 3029 3029 3030 3030 3031 3032 3033 3035 3036 3037 3037 3038 3039 3039 3040 3041 3043 3044 3045 3046 3048 3050 3051 3052 3053 3055 3055 3057 3060 3060
3022 3022 3021 3021 3020 3020 3020 3020 3020 3019 3019 3019 3018 3018 3018 3019 3020 3020 3021 3021 3022 3022 3023 3024 3025 3025 3026 3027 3028 3029 3030 3031 3032 3033 3034 3035 3035 3035 3036 3037 3038 3040 3043 3044 3045 3047 3049 3050 3051 3053 3054 3055